Weather History for KCMI - December, 2011

Change the Weather History Date:

Wednesday, December 28, 2011

  Actual Average Record
Temperature  
Mean Temperature 29 °F 26 °F  
Max Temperature 36 °F 34 °F 53 °F (2013)
Min Temperature 22 °F 19 °F 3 °F (2000)
Degree Days  
Heating Degree Days 36 39  
Month to date heating degree days 821 1000  
Since 1 July heating degree days 1836 2164  
Cooling Degree Days 0 0  
Month to date cooling degree days 0 0  
Year to date cooling degree days 1222 945  
Moisture  
Dew Point 26 °F    
Average Humidity 81    
Maximum Humidity 89    
Minimum Humidity 72    
Precipitation  
Precipitation 0.00 in 0.09 in 1.16 in (1948)
Month to date precipitation 2.39 2.23  
Year to date precipitation 32.37 39.43  
Sea Level Pressure  
Sea Level Pressure 30.03 in    
Wind  
Wind Speed 7 mph (SW)    
Max Wind Speed 16 mph    
Max Gust Speed 20 mph    
Visibility 10 miles    
Events      
T = Trace of Precipitation, MM = Missing Value Source: NWS Daily Summary

Daily Weather History Graph

Daily Weather History Graph

Search for Another Location

Airport or City:

Trip Planner

Search our weather history database for the weather conditions in past years. The results will help you decide how hot, cold, wet, or windy it might be!

Date:

Astronomy

Dec. 28, 2011 Rise Set
Actual Time 7:14 AM CST 4:35 PM CST
Civil Twilight 6:43 AM CST 5:05 PM CST
Nautical Twilight 6:09 AM CST 5:39 PM CST
Astronomical Twilight 5:36 AM CST 6:12 PM CST
Moon 9:40 AM CST (12/28) 9:11 PM CST (12/28)
Length of Visible Light 10h 21m
Length of Day
9h 20m
Waxing Crescent, 18% of the Moon is Illuminated
Dec 28
Waxing Crescent
Jan 1
First Quarter
Jan 9
Full
Jan 16
Last Quarter
Jan 23
New

Hourly Weather History & Observations

Time (CST) Temp. Windchill Dew Point Humidity Pressure Visibility Wind Dir Wind Speed Gust Speed Precip Events Conditions
12:53 AM 30.9 °F 22.8 °F 27.0 °F 85% 30.04 in 10.0 mi WNW 9.2 mph - N/A   Clear
1:53 AM 30.2 °F 21.9 °F 26.6 °F 86% 30.03 in 10.0 mi NW 9.2 mph - N/A   Partly Cloudy
2:36 AM 30.2 °F 21.9 °F 24.8 °F 80% 30.04 in 10.0 mi NNW 9.2 mph - N/A   Mostly Cloudy
2:51 AM 30.2 °F 21.3 °F 23.0 °F 75% 30.03 in 10.0 mi NNW 10.4 mph - N/A   Scattered Clouds
2:53 AM 30.0 °F 21.7 °F 23.0 °F 75% 30.05 in 10.0 mi NNW 9.2 mph - N/A   Scattered Clouds
3:53 AM 28.9 °F 22.8 °F 23.0 °F 78% 30.04 in 10.0 mi North 5.8 mph - N/A   Scattered Clouds
4:53 AM 26.1 °F 20.5 °F 21.9 °F 84% 30.06 in 10.0 mi WNW 4.6 mph - N/A   Clear
5:53 AM 25.0 °F 19.3 °F 21.9 °F 88% 30.09 in 10.0 mi NW 4.6 mph - N/A   Mostly Cloudy
6:53 AM 24.1 °F - 21.0 °F 88% 30.09 in 10.0 mi Calm Calm - N/A   Mostly Cloudy
7:53 AM 25.0 °F - 21.0 °F 85% 30.09 in 10.0 mi Calm Calm - N/A   Overcast
8:53 AM 28.9 °F 25.2 °F 25.0 °F 85% 30.10 in 10.0 mi SW 3.5 mph - N/A   Overcast
9:53 AM 30.9 °F 26.2 °F 26.1 °F 82% 30.11 in 10.0 mi SW 4.6 mph - N/A   Overcast
10:53 AM 32.0 °F 26.4 °F 26.1 °F 79% 30.10 in 10.0 mi WSW 5.8 mph - N/A   Scattered Clouds
11:53 AM 33.1 °F 26.9 °F 26.1 °F 75% 30.08 in 10.0 mi West 6.9 mph - N/A   Scattered Clouds
12:53 PM 35.1 °F 29.3 °F 28.0 °F 76% 30.06 in 10.0 mi SW 6.9 mph - N/A   Overcast
1:53 PM 36.0 °F 33.3 °F 28.0 °F 73% 30.04 in 10.0 mi WSW 3.5 mph - N/A   Scattered Clouds
2:53 PM 36.0 °F 30.3 °F 28.0 °F 73% 30.04 in 10.0 mi South 6.9 mph - N/A   Overcast
3:53 PM 35.1 °F 29.3 °F 28.9 °F 78% 30.04 in 10.0 mi South 6.9 mph - N/A   Overcast
4:53 PM 33.1 °F 26.9 °F 28.9 °F 85% 30.02 in 10.0 mi South 6.9 mph - N/A   Overcast
5:53 PM 34.0 °F 26.0 °F 28.9 °F 82% 30.00 in 10.0 mi SSE 10.4 mph - N/A   Overcast
6:53 PM 34.0 °F 26.0 °F 28.9 °F 82% 30.00 in 10.0 mi South 10.4 mph - N/A   Overcast
7:53 PM 33.1 °F 25.5 °F 28.9 °F 85% 30.00 in 10.0 mi South 9.2 mph - N/A   Clear
8:53 PM 33.1 °F 25.5 °F 28.9 °F 85% 29.97 in 10.0 mi South 9.2 mph - N/A   Clear
9:53 PM 34.0 °F 24.6 °F 28.9 °F 82% 29.93 in 10.0 mi South 13.8 mph - N/A   Clear
10:53 PM 34.0 °F 24.6 °F 30.0 °F 85% 29.90 in 10.0 mi South 13.8 mph - N/A   Clear
11:53 PM 35.1 °F 25.5 °F 30.0 °F 82% 29.87 in 10.0 mi South 15.0 mph - N/A   Clear